This is the latest recevied weather packets stored in our database for station/object W1ERB-13. If no packets are shown the sender has not sent any weather packets the latest 10 day(s).
| Time | Temp. | Humidity | Pressure | Rain* | Wind** | Luminosity | Snow |
|---|---|---|---|---|---|---|---|
| 1778096730 | 15° C | 96% | 1007.1 hPa | 0 mm | - | 90 W/m² | - |
| 1778096427 | 15° C | 96% | 1006.8 hPa | 0 mm | - | 80 W/m² | - |
| 1778096124 | 14.44° C | 96% | 1007 hPa | 0 mm | - | 80 W/m² | - |
| 1778095821 | 15° C | 96% | 1006.9 hPa | 0 mm | - | 71 W/m² | - |
| 1778095518 | 14.44° C | 96% | 1006.8 hPa | 0 mm | - | 131 W/m² | - |
| 1778095214 | 14.44° C | 96% | 1007.1 hPa | 0 mm | - | 92 W/m² | - |
| 1778094911 | 15° C | 96% | 1007.3 hPa | 0 mm | - | 113 W/m² | - |
| 1778094607 | 14.44° C | 96% | 1007.2 hPa | 0 mm | - | 121 W/m² | - |
| 1778094304 | 15° C | 96% | 1007.4 hPa | 0 mm | - | 163 W/m² | - |
| 1778094001 | 15° C | 96% | 1007.4 hPa | 0 mm | - | 129 W/m² | - |
| 1778093698 | 15° C | 96% | 1007.3 hPa | 0 mm | - | 170 W/m² | - |
| 1778093394 | 14.44° C | 96% | 1007.5 hPa | 0 mm | - | 131 W/m² | - |
| 1778093092 | 15° C | 96% | 1007.4 hPa | 1.27 mm | - | 174 W/m² | - |
| 1778092789 | 14.44° C | 96% | 1007.4 hPa | 1.27 mm | - | 170 W/m² | - |
| 1778092484 | 15° C | 96% | 1007.9 hPa | 1.78 mm | - | 141 W/m² | - |
| 1778092181 | 15° C | 95% | 1008 hPa | 3.05 mm | - | 145 W/m² | - |
| 1778091879 | 15° C | 95% | 1007.9 hPa | 3.05 mm | - | 112 W/m² | - |
| 1778091576 | 15° C | 95% | 1007.7 hPa | 1.78 mm | - | 127 W/m² | - |
| 1778091274 | 15° C | 94% | 1007.9 hPa | 0 mm | - | 96 W/m² | - |
| 1778090970 | 15° C | 94% | 1007.9 hPa | 1.78 mm | - | 91 W/m² | - |
| 1778090666 | 15° C | 94% | 1007.5 hPa | 1.78 mm | - | 118 W/m² | - |
| 1778090358 | 15° C | 94% | 1007.5 hPa | 0 mm | - | 172 W/m² | - |
| 1778090054 | 15° C | 94% | 1007.6 hPa | 1.27 mm | - | 144 W/m² | - |
| 1778089751 | 15° C | 94% | 1007.8 hPa | 1.27 mm | - | 124 W/m² | - |
| 1778089449 | 15° C | 93% | 1007.7 hPa | 0 mm | - | 126 W/m² | - |
* Rain latest hour (hover to see other rain measurements)
** Current wind speed in m/s (hover to see current wind gust speed)